Вернуться в каталог

CZ-4 DEB

АктивенSSO
NORAD 20870·DEBRIS·🇨🇳 China

Запущен Sep 3, 1990 с Taiyuan Satellite Launch Center

Loading…

Ближайшие Пролёты (ближайшие 24 часа)

TLE

СвежийSource: Space-Track

Эпоха: Sep 14, 2026, 09:42 UTC

1 20870U 90081AJ  26257.40469671  .00000338  00000-0  20325-3 0  9993
2 20870  98.9029 242.5401 0033755  96.6855  61.7162 14.13168572845442

Отслеживайте CZ-4 DEB в реальном времени с AllMySat

Download on the App Store